Theta_e
308 309 309 309 310 312 312 315 317 318 318 317 316 315 314 314 314 309 308 313 314 309 312 316 317 310 310 309 304 307 308 309 304 298 298 297 296 299 296 299 297 296 294 293 294 292 291 310 309 302 304 308 314 314
308 309 310 309 309 310 312 313 315 317 318 317 316 315 314 314 314 312 306 316 316 312 313 319 321 322 318 317 310 311 308 309 306 302 301 300 299 297 296 295 304 298 299 296 297 297 306 308 306 309 309 307 310 312
307 309 308 308 310 310 311 312 315 317 317 317 316 315 314 313 313 310 303 308 312 310 312 311 313 321 319 318 316 309 309 312 308 310 305 302 297 299 294 297 299 302 305 299 300 304 307 308 308 310 310 308 310 315
308 309 309 309 308 309 310 312 314 315 317 317 316 314 313 313 312 311 303 308 308 310 305 309 321 316 322 317 317 313 311 309 308 309 305 301 302 303 300 301 300 302 305 302 302 305 307 310 309 310 311 311 310 311
309 309 309 309 308 309 309 310 312 315 317 317 315 314 313 312 311 308 305 307 311 310 304 307 315 317 316 316 317 314 311 307 306 303 303 302 306 305 302 302 299 306 303 299 299 305 304 306 310 313 311 311 311 310
309 309 309 309 309 308 309 309 311 314 316 317 314 313 312 311 310 306 309 313 313 314 308 303 312 312 314 316 314 311 311 308 308 304 303 305 306 303 298 297 305 306 309 309 308 309 309 311 314 315 312 311 312 313
309 309 310 310 310 310 308 309 311 313 315 315 313 311 311 310 303 304 309 315 309 311 308 304 304 313 315 312 312 310 310 309 306 303 304 305 304 304 300 297 303 307 310 312 313 312 309 311 311 313 314 314 313 313
309 309 310 310 310 310 308 309 311 313 314 314 312 311 310 310 308 304 309 311 310 309 310 303 303 307 313 308 307 310 307 307 307 305 305 303 306 303 299 303 306 307 308 308 311 311 310 312 311 310 310 311 310 309
309 309 309 310 310 310 309 308 311 313 314 313 311 310 306 304 305 312 318 315 315 312 305 306 301 299 312 308 309 309 309 303 306 303 303 304 301 301 305 303 306 306 305 306 311 313 314 312 311 309 309 308 306 306
309 309 310 310 310 310 309 308 311 312 312 311 307 307 303 310 319 319 312 309 309 309 307 302 306 303 308 305 305 306 305 302 299 303 306 302 300 305 308 307 309 308 308 308 306 307 309 309 310 309 308 308 307 307
309 310 310 310 310 310 309 309 311 310 309 306 306 307 316 319 314 309 305 303 305 303 305 305 303 301 308 303 304 309 304 302 297 301 302 299 299 304 309 309 309 310 309 309 309 308 313 312 309 308 308 308 307 308
310 309 310 310 310 310 309 309 311 307 306 308 308 310 316 310 306 302 301 303 303 302 305 303 303 304 308 312 306 309 305 302 297 304 300 298 303 309 309 309 309 310 311 314 314 312 312 313 312 310 308 307 309 310
310 309 309 310 310 310 309 310 310 309 309 313 312 310 309 303 295 299 297 299 298 304 306 306 303 308 308 308 309 307 303 299 305 299 299 301 306 308 308 310 310 310 312 312 313 313 312 312 312 310 308 308 308 308
309 309 309 310 310 309 309 310 310 309 305 308 309 294 299 297 300 301 300 301 305 308 306 309 308 306 305 304 304 299 302 302 298 295 298 304 308 308 310 313 312 310 312 312 313 312 312 311 311 311 310 309 309 308
309 309 309 309 309 309 310 310 310 308 305 309 310 295 300 304 305 306 307 307 309 312 308 306 307 311 308 302 302 303 299 298 299 298 304 310 310 310 309 310 311 311 311 311 310 310 311 311 309 309 309 309 309 309
309 309 308 309 309 310 309 309 309 308 309 311 310 307 306 302 303 304 306 306 313 313 309 308 305 303 304 304 300 299 299 297 302 310 313 312 313 315 313 314 312 312 311 311 309 309 311 311 309 310 310 309 310 308
309 305 309 309 309 309 309 309 307 303 308 309 307 310 307 306 305 308 310 312 313 312 304 304 302 301 303 300 299 302 299 307 313 315 315 315 316 316 317 315 316 314 311 310 310 310 311 312 311 309 308 310 309 308
306 308 309 309 308 308 309 310 308 307 303 305 302 303 305 307 306 307 309 314 312 308 306 305 305 302 300 299 299 307 309 311 313 312 315 315 314 315 321 318 316 314 312 311 311 312 313 310 308 308 308 308 309 310
307 308 309 309 309 308 305 306 309 303 304 306 306 306 307 307 308 309 312 313 317 314 309 305 304 299 299 303 305 309 310 311 315 312 311 313 316 317 321 321 322 318 316 314 313 311 312 312 310 309 309 308 308 310
309 309 309 310 312 308 305 305 312 307 306 308 307 305 306 306 308 309 311 310 313 313 308 304 303 305 307 309 312 312 312 316 317 311 312 315 318 317 317 318 320 319 318 317 313 310 311 312 313 311 312 312 310 310
308 308 311 311 310 311 309 307 306 307 308 306 306 305 304 306 304 304 307 314 309 305 304 307 307 310 311 312 317 315 316 317 314 313 312 311 314 314 315 313 314 314 316 316 314 312 308 310 312 314 313 312 312 315
306 311 308 309 307 309 308 311 305 309 307 305 305 305 302 302 302 304 311 308 306 308 309 308 309 310 311 312 315 317 315 314 315 315 310 310 310 312 312 312 313 312 315 316 317 317 315 313 312 312 311 311 310 315
310 310 308 308 304 299 300 311 307 308 301 302 304 302 302 302 305 309 302 303 304 309 313 312 312 314 314 314 316 316 315 314 313 315 315 315 316 320 318 317 314 313 313 317 317 319 317 313 313 315 315 314 312 311
310 305 301 301 301 297 307 305 308 306 302 301 301 299 303 303 306 303 301 303 307 308 309 308 311 312 316 316 315 315 316 320 319 316 317 319 315 317 319 320 317 318 321 320 318 318 317 315 311 315 316 315 313 312
296 297 298 290 302 302 302 303 303 301 299 303 303 302 305 309 303 304 302 304 313 316 316 314 315 312 309 312 314 316 317 319 319 317 319 318 317 317 316 317 317 320 321 319 318 318 317 319 317 319 318 315 312 312
293 299 294 299 301 301 301 299 300 300 300 300 303 305 305 304 302 301 304 308 309 312 314 315 316 313 311 313 312 314 315 318 319 318 319 316 317 316 316 314 315 317 321 318 317 318 318 318 318 319 319 315 306 312
293 298 301 304 302 303 302 303 303 301 300 300 301 303 304 300 301 306 312 312 309 317 317 317 316 314 314 315 317 324 321 321 318 318 320 320 321 320 319 315 314 317 318 319 319 319 319 320 321 319 317 316 317 317
302 303 299 302 302 303 301 301 301 302 300 302 305 301 300 304 303 310 314 316 317 319 319 320 321 320 319 320 320 323 323 319 320 323 324 323 322 321 319 320 324 309 321 321 320 320 320 320 318 320 319 315 318 317
302 304 305 301 302 300 300 300 301 302 307 305 304 303 304 310 313 313 311 317 323 321 319 319 320 321 320 322 322 321 321 319 319 318 319 315 316 319 321 320 323 319 319 319 308 311 316 316 317 319 318 317 317 317
301 304 302 300 298 297 301 304 305 306 307 306 308 310 308 310 319 319 319 319 317 317 318 318 320 321 318 316 317 316 321 321 321 319 318 316 320 321 321 322 319 320 323 322 322 321 306 309 311 315 314 314 310 310
302 301 300 300 298 301 304 306 306 307 306 306 308 305 305 311 320 320 318 318 322 320 319 318 318 320 318 316 317 316 314 319 319 320 321 323 322 322 323 321 322 322 324 324 321 319 316 316 315 313 313 313 312 311
300 301 299 298 298 303 305 304 303 303 304 304 303 305 306 307 310 315 321 321 320 317 315 318 321 318 319 321 320 322 311 320 323 323 323 323 322 325 324 322 322 322 321 323 322 321 318 315 312 313 313 313 314 313
301 301 302 302 302 301 302 303 302 302 303 302 303 304 304 309 309 316 322 320 318 318 318 321 322 324 323 322 323 323 317 325 315 300 305 305 305 309 318 320 318 318 317 316 318 317 315 315 315 314 313 312 312 312
Wind_Speed
17 16 16 16 16 14 15 14 13 11 9 9 8 9 10 11 11 5 6 4 2 2 7 6 3 2 6 2 2 6 5 6 5 6 3 1 2 1 1 3 3 3 3 2 2 4 5 2 3 7 6 3 7 6
17 14 14 15 16 15 14 15 14 12 9 8 8 9 9 9 9 8 4 4 3 4 8 6 16 18 11 16 2 5 5 3 5 6 2 3 2 1 2 2 6 2 6 5 6 7 5 3 3 3 4 7 4 8
17 15 15 14 13 13 13 13 13 12 9 8 8 8 8 7 7 4 3 4 4 3 6 3 4 12 5 9 8 3 4 2 3 5 5 3 3 4 4 6 1 2 4 3 2 3 4 1 3 7 7 8 5 5
16 15 14 14 14 13 12 13 13 12 10 9 8 8 8 7 7 3 2 2 0 3 2 8 4 8 14 5 6 5 4 2 5 3 4 3 2 6 4 2 2 5 4 4 2 3 4 2 3 8 7 8 9 6
16 14 14 13 15 13 14 13 12 12 12 10 8 7 7 8 10 5 5 4 4 3 3 6 11 8 6 6 4 1 4 3 2 2 3 4 2 4 1 3 3 6 7 5 6 7 5 5 5 5 7 8 7 3
16 16 15 14 12 13 14 14 12 12 12 9 8 8 8 8 10 2 4 0 4 2 1 4 6 6 4 6 5 3 0 0 3 3 3 2 3 5 4 3 7 5 3 8 6 4 8 8 8 6 9 7 7 8
15 16 16 14 13 12 14 12 12 11 10 9 8 8 8 8 1 3 4 2 3 3 1 5 6 6 3 2 3 1 2 2 3 1 1 3 2 5 3 2 6 5 6 9 12 13 6 6 7 8 10 7 8 7
17 16 16 15 14 12 13 11 11 10 10 8 7 8 10 9 7 6 6 15 7 1 0 3 6 5 4 2 2 1 1 3 2 4 2 2 3 3 0 6 3 6 8 8 8 6 8 8 8 8 7 7 6 7
17 17 16 15 15 12 12 12 10 9 8 5 6 9 4 1 3 5 6 12 2 4 2 2 2 4 3 2 2 4 2 1 3 2 3 5 1 3 8 5 9 8 8 9 7 9 13 10 10 9 9 7 7 6
18 17 16 15 15 13 11 12 8 8 4 0 1 1 3 5 6 5 4 1 2 2 1 4 2 4 3 2 3 3 2 3 1 6 2 3 5 6 6 9 11 8 10 10 9 6 4 5 8 9 8 8 8 7
19 18 17 16 15 13 12 10 7 6 2 1 3 4 3 2 3 1 2 3 2 3 4 6 6 3 3 3 3 2 2 2 2 6 6 2 4 7 7 9 8 10 9 9 9 8 13 11 9 7 7 7 7 7
19 18 17 16 15 14 12 10 10 5 3 3 3 5 2 1 1 2 4 3 4 6 3 5 6 6 3 3 4 3 3 3 4 1 3 2 5 5 8 8 7 10 9 7 7 8 9 9 10 9 9 8 8 8
18 18 17 16 15 14 12 10 14 1 6 2 2 3 3 2 1 6 6 5 3 3 4 1 1 4 3 4 3 3 4 5 2 2 3 6 4 2 4 5 5 6 8 8 6 8 9 10 10 9 8 6 8 8
17 17 16 16 15 13 12 11 13 4 2 2 4 2 5 5 6 6 6 5 6 2 2 3 3 3 1 4 1 1 4 2 3 2 5 4 4 3 5 5 7 7 7 6 9 8 9 9 8 8 8 8 7 7
17 16 16 16 15 13 12 11 14 2 1 4 4 5 7 6 4 4 5 2 5 2 4 4 5 4 4 3 1 2 2 4 4 5 5 4 6 4 3 4 7 7 7 7 5 6 8 9 8 8 7 7 7 7
17 13 8 17 16 15 15 15 3 1 4 3 4 4 4 3 5 2 4 3 3 2 2 4 4 4 3 3 1 5 3 4 4 2 2 4 2 3 3 4 5 5 7 6 5 5 6 8 8 8 5 6 6 7
14 3 20 20 19 22 18 3 3 6 3 4 5 6 5 5 5 3 1 1 1 5 2 4 4 6 2 2 3 4 4 4 4 3 5 8 5 2 4 6 7 7 7 5 3 3 4 5 7 5 6 5 6 6
3 11 24 23 18 12 1 2 3 3 5 5 3 5 3 4 2 2 2 0 4 3 4 5 4 3 3 3 2 3 2 3 4 3 8 6 4 5 5 2 3 5 6 6 5 3 4 6 6 5 5 4 3 4
12 16 27 24 11 5 4 3 3 4 8 4 5 3 3 4 3 2 2 3 4 3 5 3 4 3 4 3 4 3 2 1 2 2 3 6 6 4 5 1 2 3 3 3 4 3 3 7 6 5 5 3 3 4
22 27 26 23 3 2 4 3 2 3 3 4 3 3 3 3 2 1 1 1 3 4 2 3 4 4 4 3 4 4 4 5 4 1 3 5 4 5 6 4 2 3 2 2 3 4 2 1 3 4 4 4 3 6
12 12 10 3 2 3 1 3 4 4 2 4 4 4 4 1 1 1 2 3 3 3 3 4 4 4 5 5 4 3 4 5 6 5 6 5 5 3 4 3 4 1 1 2 5 5 5 5 5 4 4 5 5 7
5 5 2 1 2 4 2 0 2 2 2 4 3 2 2 2 3 3 3 2 3 5 5 4 5 4 3 4 5 6 6 7 6 4 3 2 3 2 4 3 4 2 3 4 4 5 5 4 3 3 3 6 5 6
8 2 1 1 0 2 3 0 2 2 2 4 0 2 2 3 5 2 2 4 6 6 6 6 6 6 7 7 4 4 6 6 4 5 5 6 5 4 4 4 4 4 3 4 4 5 5 5 4 3 4 5 4 4
1 2 1 2 2 1 1 3 4 4 3 1 3 3 3 4 1 3 4 5 6 1 1 2 2 2 1 3 4 5 8 6 5 5 5 4 4 6 7 6 4 5 6 5 5 5 6 4 4 3 4 6 5 6
3 2 1 1 1 2 4 4 3 2 4 4 4 3 3 1 1 2 3 3 1 1 2 2 4 2 4 3 3 5 4 5 6 6 6 4 5 1 2 3 5 7 4 5 5 6 6 3 4 5 6 4 4 4
1 2 3 2 3 5 4 5 5 6 2 3 4 3 1 1 2 3 2 2 2 0 0 3 2 3 2 2 1 3 3 3 6 6 6 4 5 5 5 6 6 6 7 6 5 6 6 7 6 8 7 6 13 7
2 5 4 5 4 3 4 3 1 3 2 2 2 2 2 2 1 2 2 2 2 2 3 3 4 5 4 3 4 4 3 4 3 3 2 1 3 6 7 7 7 7 4 6 6 7 7 8 9 6 8 5 6 8
5 3 4 4 4 4 3 2 1 2 2 3 3 3 2 1 2 4 3 1 1 3 5 6 5 3 1 3 3 4 4 4 5 4 5 3 3 2 2 4 6 7 5 5 6 5 6 6 7 8 9 7 6 3
4 3 0 1 2 2 2 1 3 1 1 3 2 1 1 2 2 3 1 4 5 4 3 5 8 5 5 6 4 3 4 1 3 2 3 2 3 3 4 1 2 3 2 2 0 7 5 3 5 5 6 4 5 4
1 2 2 2 2 1 3 1 3 4 1 1 1 3 4 5 8 9 8 5 4 3 2 2 3 1 3 1 2 3 4 4 2 1 2 5 5 2 4 2 2 2 3 3 4 5 3 5 2 2 4 4 5 5
2 1 1 1 2 3 4 4 4 4 2 2 2 3 4 6 3 6 7 4 6 4 5 5 5 6 7 5 4 4 5 3 7 8 6 7 6 4 5 6 6 3 3 5 4 3 4 2 3 7 8 7 8 7
2 0 1 1 2 4 2 1 2 2 3 4 3 3 4 3 4 4 7 6 7 9 10 7 5 4 3 2 4 5 9 6 4 3 5 1 3 3 4 2 1 3 3 5 6 5 5 6 7 7 7 8 7 7
1 2 2 3 3 2 3 1 1 3 3 3 3 2 1 2 5 2 1 4 5 7 9 9 3 2 2 3 3 5 7 5 4 4 5 4 6 6 5 3 4 3 2 2 6 8 10 10 9 9 9 8 7 6
Wind_Direction
308 309 310 311 313 313 317 313 316 296 289 301 316 329 343 352 354 5 273 252 109 265 276 257 316 337 335 0 91 287 31 7 44 65 98 147 105 318 351 255 183 125 103 182 121 118 253 185 280 164 198 136 138 111
303 302 304 306 308 310 311 317 312 299 280 288 304 320 331 345 351 352 296 319 310 189 248 271 273 259 217 239 272 333 204 170 171 98 146 127 150 8 187 223 313 31 178 186 154 210 246 327 313 77 128 124 138 124
297 296 298 300 301 303 301 305 304 307 274 275 288 304 317 331 339 14 279 298 341 324 302 346 266 296 252 218 177 163 301 119 170 174 146 151 160 141 174 228 175 243 147 109 91 240 219 242 49 86 100 100 101 117
292 289 289 291 296 294 297 301 303 304 275 262 272 290 303 313 315 323 259 278 242 273 277 287 328 305 296 296 236 175 191 4 118 121 123 137 192 185 208 145 132 204 105 168 277 50 67 284 180 131 111 110 113 147
281 276 274 278 290 290 292 295 297 298 287 259 267 281 297 310 307 274 222 229 217 132 267 282 306 262 290 329 270 46 56 53 59 37 73 203 147 128 135 94 232 183 189 151 214 199 160 201 183 136 98 89 76 115
274 279 272 268 268 284 283 287 292 291 287 253 264 283 300 315 329 336 356 353 209 157 269 309 287 297 318 10 355 102 208 313 104 143 234 263 224 113 123 191 256 251 249 155 171 171 122 121 98 99 103 101 84 79
263 268 271 269 262 264 277 277 283 285 281 252 265 283 295 303 314 185 205 210 42 2 73 305 299 276 291 33 334 310 4 231 138 206 221 180 266 91 118 179 253 190 178 116 126 118 88 145 152 140 123 124 106 94
260 257 260 263 263 255 272 270 274 280 270 250 272 290 295 285 272 291 244 242 143 228 145 260 270 349 1 334 312 210 212 21 310 191 24 141 359 62 268 250 183 142 128 127 157 160 152 136 131 127 125 126 132 139
254 252 251 250 253 250 257 265 272 281 255 251 284 305 319 161 236 241 92 121 130 139 217 272 235 258 354 291 273 349 77 60 293 136 242 105 251 205 223 181 148 174 153 164 146 134 143 147 160 164 162 165 157 180
252 249 247 242 241 241 240 253 257 275 202 230 352 91 273 222 138 105 27 55 0 259 229 226 242 265 101 360 341 35 21 206 148 246 85 132 239 240 241 184 175 183 163 147 124 148 160 150 176 191 185 172 180 192
243 241 237 236 230 229 224 231 238 155 101 191 215 221 248 272 56 58 242 171 196 237 210 227 183 207 287 117 221 100 275 243 112 262 139 214 265 236 204 174 189 170 170 180 180 168 176 176 178 152 140 150 135 138
236 229 226 225 217 216 211 208 189 181 212 265 279 274 263 85 17 202 227 258 183 224 236 181 206 178 243 124 100 342 285 35 247 247 88 258 258 269 166 173 171 154 159 158 154 148 139 140 146 143 143 145 147 140
227 217 214 210 206 203 197 194 185 266 332 256 228 245 127 253 116 203 211 236 219 237 246 152 118 144 18 35 85 142 220 241 352 46 222 221 254 150 157 136 141 147 129 129 110 126 124 130 134 140 152 163 158 162
210 203 202 196 192 194 182 180 185 128 324 249 187 289 172 230 223 200 212 201 234 204 237 122 74 100 68 50 29 87 247 31 288 205 231 245 216 198 149 159 129 155 142 128 138 135 130 139 143 149 155 161 155 169
189 188 186 183 181 180 166 162 152 127 229 239 222 211 219 230 256 212 230 237 259 189 116 78 49 72 18 45 214 319 280 246 216 226 229 210 178 141 109 100 124 116 117 125 120 130 152 151 152 156 165 161 164 170
168 161 175 162 172 153 142 133 104 44 254 238 243 281 270 144 272 261 206 183 236 123 49 73 112 96 117 253 247 234 223 227 255 242 207 126 106 102 110 122 137 134 119 122 122 131 144 159 165 172 168 168 176 190
139 148 154 156 146 141 154 134 125 209 256 247 226 233 246 250 231 247 142 315 239 90 225 99 111 196 162 184 226 209 216 215 188 89 54 20 18 84 123 120 123 122 111 107 92 119 172 168 148 134 153 208 197 211
114 147 145 142 141 139 153 202 176 199 243 251 260 263 259 226 214 295 235 161 99 131 114 181 130 121 196 218 300 304 349 318 359 82 85 338 346 359 330 135 150 150 141 134 131 132 136 148 156 184 198 213 212 256
144 146 144 149 168 150 135 171 208 219 227 269 263 247 244 276 257 188 177 209 113 114 100 53 113 171 234 220 180 184 132 314 102 230 242 237 233 228 270 350 149 136 166 168 165 181 190 192 193 194 216 181 228 249
142 144 153 171 233 147 129 178 186 248 254 254 259 264 210 223 250 358 160 96 97 119 108 163 196 207 192 225 203 157 196 145 148 163 266 286 264 239 240 215 175 143 187 246 227 196 184 228 231 225 216 216 227 262
120 146 156 211 227 229 59 160 201 215 239 245 227 167 235 303 223 221 237 161 94 173 219 220 206 213 186 190 202 155 161 146 181 194 196 231 241 239 278 198 137 80 105 238 244 250 227 225 232 234 218 240 238 246
90 148 121 174 216 182 202 170 221 227 180 252 318 163 179 197 242 235 178 118 189 218 194 197 221 201 221 221 215 195 203 178 196 191 238 243 259 211 243 224 146 193 193 208 214 230 238 253 256 271 250 257 251 258
150 75 38 287 14 75 227 88 317 290 227 245 101 169 250 221 219 127 192 206 222 214 199 201 221 188 199 225 206 199 208 221 224 218 205 210 228 227 236 219 199 191 188 245 217 226 187 204 262 255 272 273 263 267
107 79 124 136 134 184 267 234 222 221 229 259 177 216 262 213 188 114 211 229 242 32 70 276 259 229 154 183 189 208 226 197 215 243 226 178 203 240 214 226 173 196 196 179 200 243 262 246 214 241 270 280 297 255
78 352 98 294 202 197 221 222 212 219 212 187 173 224 245 109 97 238 198 249 101 161 238 31 63 149 191 226 231 241 257 192 212 218 249 214 225 153 182 175 191 192 181 162 207 221 230 245 263 242 241 252 266 229
68 205 164 214 224 214 224 172 204 208 183 155 207 227 89 146 198 237 245 231 261 315 161 79 93 33 330 85 330 285 266 259 200 194 238 197 222 193 170 182 200 241 206 209 179 213 229 244 249 263 279 217 219 217
243 232 209 221 258 279 287 262 182 129 193 220 152 156 199 217 172 283 259 245 196 221 220 169 179 177 215 300 294 284 266 287 139 187 240 293 273 195 194 177 206 234 179 185 181 201 211 226 236 217 235 224 204 234
245 251 207 199 221 221 259 320 190 171 180 251 129 154 148 72 222 233 196 119 348 328 338 325 295 185 188 212 228 288 280 245 259 216 200 247 8 339 207 214 224 236 186 188 190 209 216 224 207 215 209 211 245 276
248 265 84 209 251 332 315 14 312 308 339 47 59 69 160 212 221 205 228 117 134 179 276 295 291 272 250 250 266 257 255 29 33 8 84 22 341 284 244 140 144 170 147 70 133 239 250 172 172 211 181 184 243 262
311 9 6 5 54 305 301 340 311 297 21 158 244 12 33 52 25 55 53 43 26 7 256 311 267 82 329 325 343 345 301 307 291 195 270 205 212 260 298 319 119 255 50 346 271 256 178 219 166 158 97 84 50 57
138 72 354 55 296 271 271 315 330 333 357 355 303 188 187 158 112 44 31 351 18 7 7 12 346 6 41 15 358 334 301 248 245 251 234 258 245 233 188 211 208 194 153 241 314 260 145 167 97 97 94 97 95 97
10 79 58 251 263 270 267 287 268 310 327 7 322 4 347 66 82 30 348 350 9 1 342 318 292 298 71 9 305 293 269 277 306 276 251 309 306 296 278 145 143 222 239 236 207 231 171 143 123 128 126 114 109 106
238 196 246 308 300 301 286 151 304 287 247 232 258 231 174 103 82 55 65 21 357 328 319 314 278 169 213 250 308 302 304 288 329 356 230 198 257 268 261 321 335 332 311 194 161 162 151 139 137 137 128 123 112 100